Flag for Bahrain Weather past 2 weeks in Riffa, Bahrain

Now
82 °F

Clear.


Feels Like: 82 °F
Forecast: 76 / 86 °F
Wind: 13 mph from Northwest

Location: Bahrain International Airport


UV Index: 7 (High)

Visibility: 4 mi


Pressure: 29.89 "Hg

Humidity: 45%

Dew point: 59 °F

Location of RiffaLocation

Historic Weather in Riffa

°F

Riffa temperature yesterday

Maximum temperature yesterday: 99 °F (at 3:00 PM)
Minimum temperature yesterday: 81 °F (at 5:00 AM)
Average temperature yesterday: 89 °F

Past Weeks' High & Low Weather Summary

 TemperatureHumidityPressure
High99 °F (Apr 11, 1:00 PM)83% (Apr 8, 4:00 AM)30.12 "Hg (Apr 8, 4:00 AM)
Low66 °F (Apr 7, 5:00 AM)9% (Apr 11, 12:00 PM)29.74 "Hg (Apr 18, 3:00 AM)
Average80 °F48%29.91 "Hg
* Reported Apr 4 8:00 PM — Apr 19 8:00 PM, Riffa, Weather by CustomWeather, © 2014

Note: Actual official high and low records may vary slightly from our data, if they occured in-between our weather recording intervals... More about our weather records

Advertising

Historic Weather Conditions — Data for Previous 24 hours

 ConditionsComfort  
Time TempWeatherWind HumidityBarometerVisibility
8:00 PM
Apr 19
82 °FClear.13 mph45%29.89 "Hg4 mi
7:00 PM84 °FClear.14 mph40%29.89 "Hg4 mi
6:00 PM84 °FClear.16 mph45%29.86 "Hg4 mi
5:00 PM86 °FDuststorm.18 mph43%29.86 "Hg3 mi
4:00 PM88 °FClear.20 mph40%29.86 "Hg4 mi
3:00 PM91 °FClear.17 mph28%29.86 "Hg4 mi
2:00 PM91 °FClear.21 mph30%29.86 "Hg4 mi
1:00 PM91 °FClear.17 mph34%29.89 "Hg4 mi
12:00 PM90 °FClear.21 mph38%29.89 "Hg4 mi
11:00 AM88 °FSunny.17 mph46%29.89 "Hg10 mi
10:00 AM86 °FSunny.16 mph49%29.89 "Hg10 mi
9:00 AM86 °FSunny.17 mph49%29.89 "Hg10 mi
8:00 AM91 °FSunny.5 mph30%29.89 "Hg10 mi
7:00 AM84 °FSunny.3 mph62%29.86 "Hg10 mi
6:00 AM82 °FSunny.2 mph51%29.83 "Hg10 mi
5:00 AM81 °FClear.1 mph54%29.83 "Hg10 mi
4:30 AM81 °FClear.2 mph66%29.80 "Hg10 mi
3:00 AM84 °FClear.3 mph45%29.80 "Hg10 mi
2:00 AM86 °FClear.3 mph38%29.77 "Hg10 mi
1:00 AM86 °FClear.5 mph46%29.77 "Hg10 mi
12:00 AM84 °FClear.7 mph45%29.77 "Hg10 mi
11:00 PM
Apr 18
86 °FClear.5 mph35%29.80 "Hg10 mi
10:00 PM86 °FClear.7 mph35%29.80 "Hg10 mi
9:00 PM86 °FClear.2 mph40%29.80 "Hg10 mi
Weather by CustomWeather, © 2014

See weather overview